Hourly Data Report for October 29, 2020

CARBERRY CS
MANITOBA
Current Station Operator: ECCC - MSC

49°54'20.900" N
99°21'26.800" W
383.50 m
5010547
71170
WZE

Download Data

Hourly Data (October 2020)
Hourly Data Report for October 29, 2020
TIME
LST
Temp Definition
°C
Dew Point Definition
°C
Rel Hum Definition
%
Precip. Amount Definition
mm

Wind Dir Definition
10's deg

Wind Spd Definition
km/h
Visibility Definition
km
Stn Press Definition
kPa
Hmdx Definition


Wind Chill Definition


Weather Definition


00:00 -3.7 -5.8 86 0.0 15 5   97.67   -6 LegendNANA
01:00 -3.8 -6.3 83 0.0 16 6   97.68   -6 LegendNANA
02:00 -3.9 -6.5 83 0.0 12 8   97.60   -7 LegendNANA
03:00 -3.9 -6.1 84 0.0 15 8   97.57   -7 LegendNANA
04:00 -3.8 -6.0 84 0.0 16 8   97.50   -7 LegendNANA
05:00 -3.8 -6.1 84 0.0 14 8   97.47   -7 LegendNANA
06:00 -3.7 -6.3 82 0.0 15 10   97.44   -8 LegendNANA
07:00 -3.7 -6.1 84 0.0 13 13   97.40   -9 LegendNANA
08:00 -3.6 -6.3 82 0.0 14 14   97.35   -9 LegendNANA
09:00 -3.3 -6.6 78 0.0 14 15   97.33   -8 LegendNANA
10:00 -2.5 -5.5 80 0.0 15 16   97.30   -8 LegendNANA
11:00 -1.8 -4.4 83 0.0 15 16   97.24   -7 LegendNANA
12:00 -1.1 -3.7 83 0.0 15 18   97.20   -6 LegendNANA
13:00 -0.5 -3.4 81 0.0 14 14   97.10   -5 LegendNANA
14:00 0.0 -2.9 81 0.0 16 12   97.04   -4 LegendNANA
15:00 0.2 -2.8 80 0.0 15 11   97.04     LegendNANA
16:00 0.4 -2.4 82 0.0 15 7   97.06     LegendNANA
17:00 0.2 -2.5 82 0.0 13 8   97.09     LegendNANA
18:00 -0.1 -2.2 86 0.0 10 7   97.12   -3 LegendNANA
19:00 -0.2 -2.4 85 0.0 12 5   97.14   -2 LegendNANA
20:00 -0.2 -2.5 84 0.0 15 3   97.16   -1 LegendNANA
21:00 -0.6 -2.1 89 0.0 10 3   97.18   -2 LegendNANA
22:00 -0.7 -1.7 93 0.0   0   97.18     LegendNANA
23:00 -1.2 -2.0 94 0.0 10 2   97.19   -2 LegendNANA

Notes on Data Quality.

Legend

  • E = Estimated
  • M = Missing
  • NA = Not Available*
  • [empty] = Indicates an unobserved value
Date modified: